User: anonymous   Login
Location: Unspecified
(0.0000°N, 0.0000°E)
Time: 02:59:55
(UTC+00:00)
Language:

AEHF 2 (USA 235) - Orbit

View from above orbital plane
View from above orbital plane
View from above satellite
View from above satellite

Ground track
Ground track

The orbit data is extracted from the following two-line orbital elements,

1 38254U 12019A   24109.44392288 -.00000162  00000-0  00000-0 0  9991
2 38254   4.8260  61.8039 0002551 285.3782 285.4726  1.00273001 42935
Epoch (UTC): 18 April 2024 10:39:14
Eccentricity: 0.0002551
inclination: 4.8260°
perigee height: 35775 km
apogee height: 35796 km
right ascension of ascending node: 61.8039°
argument of perigee: 285.3782°
revolutions per day: 1.00273001
mean anomaly at epoch: 285.4726°
orbit number at epoch: 4293

The dashed part of the orbit path shows where the satellite is in the earth's shadow,  

DLR